Wolke Sonne

Wetter Ammerndorf

Gehe zu: Roßtal

Tageswerte vom Freitag, 02.12.2022

Optionen

Tag:
Erweitert:

Alle Werte vom Freitag, 02.12.2022

Einen Moment bitte, die Daten werden aufbereitet...

UhrzeitTemperaturBoden 10cmBoden 20cmFeuchteLuftdruckNiederschlagEvapotranspirationWindWindböenWindrichtungSolarstrahlungUV-IndexSonne?Uhrzeit
Diagramm IconDiagramm IconDiagramm IconDiagramm IconDiagramm IconDiagramm IconDiagramm IconDiagramm IconDiagramm IconDiagramm IconDiagramm IconDiagramm IconDiagramm Icon
00:002,8 °C 6,1 °C 6,7 °C 93 % 1023,4 hPa 0,0 mm - 0,0 km/h 3,2 km/h NO 0,0 W/qm 0,0 nein 00:00
00:052,8 °C 6,1 °C 6,7 °C 94 % 1023,4 hPa 0,0 mm 0,0 mm 0,0 km/h 3,2 km/h NO 0,0 W/qm 0,0 nein 00:05
00:102,8 °C 6,1 °C 6,7 °C 94 % 1023,4 hPa 0,0 mm 0,0 mm 0,0 km/h 3,2 km/h NO 0,0 W/qm 0,0 nein 00:10
00:152,7 °C 6,1 °C 6,7 °C 94 % 1023,5 hPa 0,0 mm - 0,0 km/h 0,0 km/h NO 0,0 W/qm 0,0 nein 00:15
00:202,7 °C 6,1 °C 6,7 °C 94 % 1023,3 hPa 0,0 mm - 0,0 km/h 0,0 km/h NO 0,0 W/qm 0,0 nein 00:20
00:252,6 °C 6,1 °C 6,7 °C 94 % 1023,4 hPa 0,0 mm - 0,0 km/h 0,0 km/h ONO 0,0 W/qm 0,0 nein 00:25
00:302,6 °C 6,1 °C 6,7 °C 94 % 1023,4 hPa 0,0 mm - 1,4 km/h 3,2 km/h ONO 0,0 W/qm 0,0 nein 00:30
00:352,6 °C 6,1 °C 6,7 °C 94 % 1023,3 hPa 0,0 mm - 0,0 km/h 4,7 km/h ONO 0,0 W/qm 0,0 nein 00:35
00:402,6 °C 6,1 °C 6,7 °C 94 % 1023,4 hPa 0,0 mm - 0,0 km/h 4,7 km/h ONO 0,0 W/qm 0,0 nein 00:40
00:452,6 °C 6,1 °C 6,7 °C 94 % 1023,3 hPa 0,0 mm - 0,0 km/h 3,2 km/h NO 0,0 W/qm 0,0 nein 00:45
00:502,6 °C 6,1 °C 6,7 °C 94 % 1023,1 hPa 0,0 mm - 0,0 km/h 4,7 km/h NO 0,0 W/qm 0,0 nein 00:50
00:552,6 °C 6,1 °C 6,7 °C 94 % 1023,0 hPa 0,0 mm - 0,0 km/h 4,7 km/h NO 0,0 W/qm 0,0 nein 00:55
01:002,6 °C 6,1 °C 6,7 °C 94 % 1023,0 hPa 0,0 mm - 0,0 km/h 4,7 km/h NO 0,0 W/qm 0,0 nein 01:00
01:052,6 °C 6,1 °C 6,7 °C 94 % 1023,0 hPa 0,0 mm 0,0 mm 0,0 km/h 3,2 km/h NO 0,0 W/qm 0,0 nein 01:05
01:102,6 °C 6,1 °C 6,7 °C 94 % 1022,9 hPa 0,0 mm 0,0 mm 0,0 km/h 3,2 km/h NO 0,0 W/qm 0,0 nein 01:10
01:152,6 °C 6,1 °C 6,7 °C 94 % 1022,9 hPa 0,0 mm - 0,0 km/h 3,2 km/h NO 0,0 W/qm 0,0 nein 01:15
01:202,6 °C 6,1 °C 6,7 °C 94 % 1022,9 hPa 0,0 mm - 0,0 km/h 3,2 km/h NNO 0,0 W/qm 0,0 nein 01:20
01:252,6 °C 6,1 °C 6,7 °C 94 % 1022,9 hPa 0,0 mm - 0,0 km/h 3,2 km/h NNO 0,0 W/qm 0,0 nein 01:25
01:302,5 °C 6,1 °C 6,7 °C 94 % 1023,0 hPa 0,0 mm - 1,4 km/h 4,7 km/h NO 0,0 W/qm 0,0 nein 01:30
01:352,5 °C 6,1 °C 6,7 °C 94 % 1022,9 hPa 0,0 mm - 0,0 km/h 4,7 km/h NO 0,0 W/qm 0,0 nein 01:35
01:402,5 °C 6,1 °C 6,7 °C 94 % 1022,9 hPa 0,0 mm - 0,0 km/h 4,7 km/h NO 0,0 W/qm 0,0 nein 01:40
01:452,5 °C 6,1 °C 6,7 °C 94 % 1022,9 hPa 0,0 mm - 0,0 km/h 4,7 km/h NO 0,0 W/qm 0,0 nein 01:45
01:502,5 °C 6,1 °C 6,7 °C 94 % 1022,7 hPa 0,0 mm - 0,0 km/h 4,7 km/h NW 0,0 W/qm 0,0 nein 01:50
01:552,5 °C 6,1 °C 6,7 °C 94 % 1022,7 hPa 0,0 mm - 0,0 km/h 4,7 km/h ONO 0,0 W/qm 0,0 nein 01:55
UhrzeitTemperaturBoden 10cmBoden 20cmFeuchteLuftdruckNiederschlagEvapotranspirationWindWindböenWindrichtungSolarstrahlungUV-IndexSonne?Uhrzeit
02:002,4 °C 6,1 °C 6,7 °C 94 % 1022,8 hPa 0,0 mm - 1,4 km/h 4,7 km/h NNO 0,0 W/qm 0,0 nein 02:00
02:052,4 °C 6,1 °C 6,7 °C 94 % 1022,8 hPa 0,0 mm 0,0 mm 1,4 km/h 4,7 km/h ONO 0,0 W/qm 0,0 nein 02:05
02:102,4 °C 6,1 °C 6,7 °C 94 % 1022,7 hPa 0,0 mm 0,0 mm 1,4 km/h 6,5 km/h ONO 0,0 W/qm 0,0 nein 02:10
02:152,4 °C 6,1 °C 6,7 °C 94 % 1022,7 hPa 0,0 mm - 0,0 km/h 6,5 km/h ONO 0,0 W/qm 0,0 nein 02:15
02:202,4 °C 6,1 °C 6,7 °C 94 % 1022,6 hPa 0,0 mm - 0,0 km/h 4,7 km/h NO 0,0 W/qm 0,0 nein 02:20
02:252,4 °C 6,1 °C 6,7 °C 94 % 1022,6 hPa 0,0 mm - 1,4 km/h 4,7 km/h NO 0,0 W/qm 0,0 nein 02:25
02:302,4 °C 6,1 °C 6,7 °C 94 % 1022,6 hPa 0,0 mm - 1,4 km/h 4,7 km/h NNO 0,0 W/qm 0,0 nein 02:30
02:352,4 °C 6,1 °C 6,7 °C 93 % 1022,6 hPa 0,0 mm - 1,4 km/h 4,7 km/h NO 0,0 W/qm 0,0 nein 02:35
02:402,4 °C 6,1 °C 6,7 °C 93 % 1022,5 hPa 0,0 mm - 1,4 km/h 6,5 km/h ONO 0,0 W/qm 0,0 nein 02:40
02:452,4 °C 6,1 °C 6,7 °C 93 % 1022,6 hPa 0,0 mm - 1,4 km/h 6,5 km/h NO 0,0 W/qm 0,0 nein 02:45
02:502,3 °C 6,1 °C 6,7 °C 93 % 1022,6 hPa 0,0 mm - 1,4 km/h 6,5 km/h NO 0,0 W/qm 0,0 nein 02:50
02:552,4 °C 6,1 °C 6,7 °C 93 % 1022,5 hPa 0,0 mm - 1,4 km/h 4,7 km/h NO 0,0 W/qm 0,0 nein 02:55
03:002,4 °C 6,1 °C 6,7 °C 93 % 1022,6 hPa 0,0 mm - 0,0 km/h 4,7 km/h ONO 0,0 W/qm 0,0 nein 03:00
03:052,4 °C 6,1 °C 6,7 °C 93 % 1022,5 hPa 0,0 mm 0,0 mm 0,0 km/h 4,7 km/h ONO 0,0 W/qm 0,0 nein 03:05
03:102,4 °C 6,1 °C 6,7 °C 93 % 1022,5 hPa 0,0 mm 0,0 mm 0,0 km/h 4,7 km/h ONO 0,0 W/qm 0,0 nein 03:10
03:152,4 °C 6,1 °C 6,7 °C 93 % 1022,5 hPa 0,0 mm - 0,0 km/h 4,7 km/h ONO 0,0 W/qm 0,0 nein 03:15
03:202,4 °C 6,1 °C 6,7 °C 93 % 1022,5 hPa 0,0 mm - 0,0 km/h 4,7 km/h ONO 0,0 W/qm 0,0 nein 03:20
03:252,4 °C 6,1 °C 6,7 °C 93 % 1022,5 hPa 0,0 mm - 0,0 km/h 4,7 km/h ONO 0,0 W/qm 0,0 nein 03:25
03:302,4 °C 6,1 °C 6,7 °C 93 % 1022,3 hPa 0,0 mm - 1,4 km/h 4,7 km/h WNW 0,0 W/qm 0,0 nein 03:30
03:352,4 °C 6,1 °C 6,7 °C 93 % 1022,2 hPa 0,0 mm - 1,4 km/h 4,7 km/h ONO 0,0 W/qm 0,0 nein 03:35
03:402,3 °C 6,1 °C 6,7 °C 93 % 1022,3 hPa 0,0 mm - 1,4 km/h 6,5 km/h O 0,0 W/qm 0,0 nein 03:40
03:452,2 °C 6,1 °C 6,7 °C 93 % 1022,3 hPa 0,0 mm - 1,4 km/h 6,5 km/h NO 0,0 W/qm 0,0 nein 03:45
03:502,2 °C 6,1 °C 6,7 °C 93 % 1022,3 hPa 0,2 mm - 1,4 km/h 6,5 km/h ONO 0,0 W/qm 0,0 nein 03:50
03:552,1 °C 6,1 °C 6,7 °C 93 % 1022,3 hPa 0,0 mm - 3,2 km/h 6,5 km/h ONO 0,0 W/qm 0,0 nein 03:55
UhrzeitTemperaturBoden 10cmBoden 20cmFeuchteLuftdruckNiederschlagEvapotranspirationWindWindböenWindrichtungSolarstrahlungUV-IndexSonne?Uhrzeit
04:002,1 °C 6,1 °C 6,7 °C 93 % 1022,2 hPa 0,0 mm - 3,2 km/h 7,9 km/h NO 0,0 W/qm 0,0 nein 04:00
04:052,0 °C 6,1 °C 6,7 °C 94 % 1022,2 hPa 0,0 mm 0,0 mm 1,4 km/h 7,9 km/h NO 0,0 W/qm 0,0 nein 04:05
04:102,0 °C 6,1 °C 6,7 °C 94 % 1022,1 hPa 0,2 mm 0,0 mm 3,2 km/h 7,9 km/h ONO 0,0 W/qm 0,0 nein 04:10
04:151,9 °C 6,1 °C 6,7 °C 94 % 1022,1 hPa 0,0 mm - 1,4 km/h 7,9 km/h NO 0,0 W/qm 0,0 nein 04:15
04:201,9 °C 6,1 °C 6,7 °C 94 % 1022,1 hPa 0,0 mm - 1,4 km/h 7,9 km/h NO 0,0 W/qm 0,0 nein 04:20
04:251,9 °C 6,1 °C 6,7 °C 94 % 1022,0 hPa 0,0 mm - 1,4 km/h 6,5 km/h NO 0,0 W/qm 0,0 nein 04:25
04:301,9 °C 6,1 °C 6,7 °C 94 % 1022,0 hPa 0,0 mm - 3,2 km/h 6,5 km/h NNO 0,0 W/qm 0,0 nein 04:30
04:351,9 °C 6,1 °C 6,7 °C 94 % 1022,0 hPa 0,0 mm - 1,4 km/h 6,5 km/h NO 0,0 W/qm 0,0 nein 04:35
04:401,8 °C 6,1 °C 6,7 °C 94 % 1021,9 hPa 0,0 mm - 0,0 km/h 6,5 km/h NNO 0,0 W/qm 0,0 nein 04:40
04:451,8 °C 6,1 °C 6,7 °C 94 % 1021,9 hPa 0,0 mm - 0,0 km/h 6,5 km/h NO 0,0 W/qm 0,0 nein 04:45
04:501,8 °C 6,1 °C 6,7 °C 94 % 1021,9 hPa 0,0 mm - 0,0 km/h 4,7 km/h NO 0,0 W/qm 0,0 nein 04:50
04:551,8 °C 6,1 °C 6,7 °C 94 % 1021,9 hPa 0,0 mm - 0,0 km/h 3,2 km/h NO 0,0 W/qm 0,0 nein 04:55
05:001,8 °C 6,1 °C 6,7 °C 94 % 1021,9 hPa 0,0 mm - 0,0 km/h 3,2 km/h NO 0,0 W/qm 0,0 nein 05:00
05:051,8 °C 6,1 °C 6,7 °C 94 % 1021,8 hPa 0,0 mm 0,0 mm 0,0 km/h 4,7 km/h NO 0,0 W/qm 0,0 nein 05:05
05:101,8 °C 6,1 °C 6,7 °C 94 % 1021,8 hPa 0,0 mm 0,0 mm 0,0 km/h 4,7 km/h NO 0,0 W/qm 0,0 nein 05:10
05:151,8 °C 6,1 °C 6,7 °C 94 % 1021,8 hPa 0,0 mm - 0,0 km/h 0,0 km/h NO 0,0 W/qm 0,0 nein 05:15
05:201,7 °C 6,1 °C 6,7 °C 94 % 1021,7 hPa 0,0 mm - 0,0 km/h 3,2 km/h NO 0,0 W/qm 0,0 nein 05:20
05:251,7 °C 6,1 °C 6,7 °C 94 % 1021,6 hPa 0,0 mm - 1,4 km/h 3,2 km/h ONO 0,0 W/qm 0,0 nein 05:25
05:301,6 °C 6,1 °C 6,7 °C 94 % 1021,7 hPa 0,0 mm - 1,4 km/h 4,7 km/h WNW 0,0 W/qm 0,0 nein 05:30
05:351,6 °C 6,1 °C 6,7 °C 94 % 1021,7 hPa 0,0 mm - 1,4 km/h 4,7 km/h NO 0,0 W/qm 0,0 nein 05:35
05:401,6 °C 6,1 °C 6,7 °C 94 % 1021,6 hPa 0,0 mm - 1,4 km/h 6,5 km/h NNO 0,0 W/qm 0,0 nein 05:40
05:451,5 °C 6,1 °C 6,7 °C 94 % 1021,7 hPa 0,0 mm - 1,4 km/h 6,5 km/h NO 0,0 W/qm 0,0 nein 05:45
05:501,4 °C 6,1 °C 6,7 °C 94 % 1021,8 hPa 0,0 mm - 0,0 km/h 6,5 km/h ONO 0,0 W/qm 0,0 nein 05:50
05:551,4 °C 6,1 °C 6,7 °C 94 % 1021,8 hPa 0,0 mm - 0,0 km/h 4,7 km/h ONO 0,0 W/qm 0,0 nein 05:55
UhrzeitTemperaturBoden 10cmBoden 20cmFeuchteLuftdruckNiederschlagEvapotranspirationWindWindböenWindrichtungSolarstrahlungUV-IndexSonne?Uhrzeit
06:001,4 °C 6,1 °C 6,7 °C 94 % 1021,7 hPa 0,0 mm - 0,0 km/h 4,7 km/h NNO 0,0 W/qm 0,0 nein 06:00
06:051,3 °C 6,1 °C 6,7 °C 94 % 1021,6 hPa 0,0 mm 0,0 mm 1,4 km/h 4,7 km/h ONO 0,0 W/qm 0,0 nein 06:05
06:101,3 °C 6,1 °C 6,7 °C 94 % 1021,6 hPa 0,0 mm 0,0 mm 1,4 km/h 4,7 km/h ONO 0,0 W/qm 0,0 nein 06:10
06:151,3 °C 5,6 °C 6,7 °C 94 % 1021,5 hPa 0,0 mm - 1,4 km/h 7,9 km/h NNO 0,0 W/qm 0,0 nein 06:15
06:201,3 °C 5,6 °C 6,7 °C 94 % 1021,6 hPa 0,0 mm - 1,4 km/h 7,9 km/h NO 0,0 W/qm 0,0 nein 06:20
06:251,2 °C 5,6 °C 6,7 °C 94 % 1021,5 hPa 0,0 mm - 3,2 km/h 7,9 km/h ONO 0,0 W/qm 0,0 nein 06:25
06:301,2 °C 5,6 °C 6,7 °C 94 % 1021,6 hPa 0,0 mm - 3,2 km/h 7,9 km/h ONO 0,0 W/qm 0,0 nein 06:30
06:351,2 °C 5,6 °C 6,7 °C 94 % 1021,6 hPa 0,0 mm - 3,2 km/h 7,9 km/h ONO 0,0 W/qm 0,0 nein 06:35
06:401,2 °C 5,6 °C 6,7 °C 94 % 1021,6 hPa 0,0 mm - 3,2 km/h 7,9 km/h NO 0,0 W/qm 0,0 nein 06:40
06:451,1 °C 5,6 °C 6,7 °C 94 % 1021,6 hPa 0,0 mm - 4,7 km/h 7,9 km/h NO 0,0 W/qm 0,0 nein 06:45
06:501,1 °C 5,6 °C 6,7 °C 94 % 1021,6 hPa 0,0 mm - 4,7 km/h 11,2 km/h NO 0,0 W/qm 0,0 nein 06:50
06:551,1 °C 5,6 °C 6,7 °C 94 % 1021,6 hPa 0,0 mm - 3,2 km/h 11,2 km/h ONO 0,0 W/qm 0,0 nein 06:55
07:001,1 °C 5,6 °C 6,7 °C 94 % 1021,6 hPa 0,0 mm - 3,2 km/h 11,2 km/h ONO 0,0 W/qm 0,0 nein 07:00
07:051,1 °C 5,6 °C 6,7 °C 94 % 1021,6 hPa 0,0 mm 0,0 mm 1,4 km/h 9,7 km/h NO 0,0 W/qm 0,0 nein 07:05
07:101,0 °C 5,6 °C 6,7 °C 94 % 1021,6 hPa 0,0 mm 0,0 mm 3,2 km/h 7,9 km/h NO 0,0 W/qm 0,0 nein 07:10
07:151,0 °C 5,6 °C 6,7 °C 94 % 1021,6 hPa 0,0 mm - 3,2 km/h 7,9 km/h NO 0,0 W/qm 0,0 nein 07:15
07:201,0 °C 5,6 °C 6,7 °C 94 % 1021,6 hPa 0,0 mm - 3,2 km/h 7,9 km/h ONO 0,0 W/qm 0,0 nein 07:20
07:250,9 °C 5,6 °C 6,7 °C 94 % 1021,7 hPa 0,0 mm - 4,7 km/h 7,9 km/h ONO 0,0 W/qm 0,0 nein 07:25
07:300,9 °C 5,6 °C 6,7 °C 94 % 1021,7 hPa 0,0 mm - 4,7 km/h 11,2 km/h ONO 0,0 W/qm 0,0 nein 07:30
07:350,9 °C 5,6 °C 6,7 °C 94 % 1021,7 hPa 0,0 mm - 4,7 km/h 11,2 km/h ONO 0,0 W/qm 0,0 nein 07:35
07:400,9 °C 5,6 °C 6,7 °C 94 % 1021,6 hPa 0,0 mm - 4,7 km/h 11,2 km/h ONO 0,0 W/qm 0,0 nein 07:40
07:450,9 °C 5,6 °C 6,7 °C 94 % 1021,6 hPa 0,0 mm - 4,7 km/h 11,2 km/h NO 0,0 W/qm 0,0 nein 07:45
07:500,9 °C 5,6 °C 6,7 °C 94 % 1021,7 hPa 0,0 mm - 3,2 km/h 7,9 km/h ONO 0,0 W/qm 0,0 nein 07:50
07:550,9 °C 5,6 °C 6,7 °C 94 % 1021,6 hPa 0,0 mm - 3,2 km/h 11,2 km/h ONO 0,0 W/qm 0,0 nein 07:55
UhrzeitTemperaturBoden 10cmBoden 20cmFeuchteLuftdruckNiederschlagEvapotranspirationWindWindböenWindrichtungSolarstrahlungUV-IndexSonne?Uhrzeit
08:000,9 °C 5,6 °C 6,7 °C 94 % 1021,7 hPa 0,0 mm - 4,7 km/h 11,2 km/h ONO 0,0 W/qm 0,0 nein 08:00
08:050,9 °C 5,6 °C 6,7 °C 94 % 1021,7 hPa 0,0 mm 0,0 mm 3,2 km/h 11,2 km/h ONO 0,0 W/qm 0,0 nein 08:05
08:100,9 °C 5,6 °C 6,7 °C 94 % 1021,7 hPa 0,0 mm 0,0 mm 3,2 km/h 7,9 km/h NO 0,0 W/qm 0,0 nein 08:10
08:150,9 °C 5,6 °C 6,7 °C 94 % 1021,6 hPa 0,0 mm - 3,2 km/h 7,9 km/h NO 0,0 W/qm 0,0 nein 08:15
08:200,8 °C 5,6 °C 6,7 °C 94 % 1021,8 hPa 0,0 mm - 3,2 km/h 7,9 km/h NO 0,0 W/qm 0,0 nein 08:20
08:250,8 °C 5,6 °C 6,7 °C 94 % 1021,8 hPa 0,0 mm - 3,2 km/h 7,9 km/h ONO 5,0 W/qm 0,0 nein 08:25
08:300,8 °C 5,6 °C 6,7 °C 94 % 1021,7 hPa 0,0 mm - 3,2 km/h 7,9 km/h ONO 7,0 W/qm 0,0 nein 08:30
08:350,8 °C 5,6 °C 6,7 °C 94 % 1021,7 hPa 0,0 mm - 4,7 km/h 7,9 km/h NO 9,0 W/qm 0,0 nein 08:35
08:400,8 °C 5,6 °C 6,7 °C 94 % 1021,8 hPa 0,0 mm - 4,7 km/h 7,9 km/h NO 11,0 W/qm 0,0 nein 08:40
08:450,8 °C 5,6 °C 6,7 °C 94 % 1021,7 hPa 0,0 mm - 4,7 km/h 9,7 km/h N 16,0 W/qm 0,0 nein 08:45
08:500,8 °C 5,6 °C 6,7 °C 94 % 1021,7 hPa 0,0 mm - 4,7 km/h 11,2 km/h NO 23,0 W/qm 0,0 nein 08:50
08:550,8 °C 5,6 °C 6,7 °C 94 % 1021,6 hPa 0,0 mm - 6,5 km/h 11,2 km/h ONO 16,0 W/qm 0,0 nein 08:55
09:000,8 °C 5,6 °C 6,7 °C 94 % 1021,7 hPa 0,0 mm - 4,7 km/h 11,2 km/h NO 14,0 W/qm 0,0 nein 09:00
09:050,8 °C 5,6 °C 6,7 °C 94 % 1021,7 hPa 0,0 mm 0,0 mm 3,2 km/h 11,2 km/h N 16,0 W/qm 0,0 nein 09:05
09:100,8 °C 5,6 °C 6,7 °C 94 % 1021,6 hPa 0,0 mm 0,0 mm 3,2 km/h 9,7 km/h NO 16,0 W/qm 0,0 nein 09:10
09:150,8 °C 5,6 °C 6,7 °C 94 % 1021,6 hPa 0,0 mm - 3,2 km/h 7,9 km/h ONO 14,0 W/qm 0,0 nein 09:15
09:200,8 °C 5,6 °C 6,7 °C 94 % 1021,6 hPa 0,0 mm - 3,2 km/h 7,9 km/h NO 12,0 W/qm 0,0 nein 09:20
09:250,8 °C 5,6 °C 6,7 °C 94 % 1021,7 hPa 0,0 mm - 3,2 km/h 7,9 km/h O 14,0 W/qm 0,0 nein 09:25
09:300,8 °C 5,6 °C 6,7 °C 94 % 1021,7 hPa 0,0 mm - 3,2 km/h 7,9 km/h ONO 16,0 W/qm 0,0 nein 09:30
09:350,8 °C 5,6 °C 6,7 °C 94 % 1021,6 hPa 0,0 mm - 3,2 km/h 11,2 km/h NO 18,0 W/qm 0,0 nein 09:35
09:400,8 °C 5,6 °C 6,7 °C 94 % 1021,6 hPa 0,0 mm - 3,2 km/h 11,2 km/h ONO 19,0 W/qm 0,0 nein 09:40
09:450,8 °C 5,6 °C 6,7 °C 94 % 1021,6 hPa 0,0 mm - 3,2 km/h 11,2 km/h NO 21,0 W/qm 0,0 nein 09:45
09:500,9 °C 5,6 °C 6,7 °C 94 % 1021,5 hPa 0,0 mm - 3,2 km/h 7,9 km/h NO 21,0 W/qm 0,0 nein 09:50
09:550,9 °C 5,6 °C 6,7 °C 94 % 1021,5 hPa 0,0 mm - 3,2 km/h 7,9 km/h NO 21,0 W/qm 0,0 nein 09:55
UhrzeitTemperaturBoden 10cmBoden 20cmFeuchteLuftdruckNiederschlagEvapotranspirationWindWindböenWindrichtungSolarstrahlungUV-IndexSonne?Uhrzeit
10:000,9 °C 5,6 °C 6,7 °C 94 % 1021,5 hPa 0,0 mm - 3,2 km/h 6,5 km/h NO 26,0 W/qm 0,0 nein 10:00
10:050,9 °C 5,6 °C 6,7 °C 94 % 1021,5 hPa 0,0 mm 0,0 mm 3,2 km/h 6,5 km/h O 30,0 W/qm 0,0 nein 10:05
10:101,0 °C 5,6 °C 6,7 °C 94 % 1021,5 hPa 0,0 mm 0,0 mm 3,2 km/h 6,5 km/h NO 32,0 W/qm 0,0 nein 10:10
10:151,0 °C 5,6 °C 6,7 °C 94 % 1021,5 hPa 0,0 mm - 1,4 km/h 6,5 km/h NO 33,0 W/qm 0,0 nein 10:15
10:201,1 °C 5,6 °C 6,7 °C 94 % 1021,6 hPa 0,0 mm - 1,4 km/h 6,5 km/h NO 37,0 W/qm 0,0 nein 10:20
10:251,1 °C 5,6 °C 6,7 °C 94 % 1021,5 hPa 0,0 mm - 3,2 km/h 4,7 km/h ONO 37,0 W/qm 0,0 nein 10:25
10:301,1 °C 5,6 °C 6,7 °C 94 % 1021,6 hPa 0,0 mm - 3,2 km/h 6,5 km/h ONO 44,0 W/qm 0,0 nein 10:30
10:351,2 °C 5,6 °C 6,7 °C 94 % 1021,5 hPa 0,0 mm - 3,2 km/h 6,5 km/h ONO 46,0 W/qm 0,0 nein 10:35
10:401,2 °C 5,6 °C 6,7 °C 94 % 1021,4 hPa 0,0 mm - 1,4 km/h 6,5 km/h NO 42,0 W/qm 0,0 nein 10:40
10:451,2 °C 5,6 °C 6,7 °C 94 % 1021,4 hPa 0,0 mm - 1,4 km/h 6,5 km/h ONO 33,0 W/qm 0,0 nein 10:45
10:501,2 °C 5,6 °C 6,7 °C 94 % 1021,3 hPa 0,0 mm - 1,4 km/h 4,7 km/h ONO 39,0 W/qm 0,0 nein 10:50
10:551,2 °C 5,6 °C 6,7 °C 94 % 1021,3 hPa 0,0 mm - 1,4 km/h 6,5 km/h NO 40,0 W/qm 0,0 nein 10:55
11:001,2 °C 5,6 °C 6,7 °C 94 % 1021,3 hPa 0,0 mm - 1,4 km/h 6,5 km/h NO 42,0 W/qm 0,0 nein 11:00
11:051,3 °C 5,6 °C 6,7 °C 94 % 1021,2 hPa 0,0 mm 0,0 mm 0,0 km/h 4,7 km/h NO 47,0 W/qm 0,0 nein 11:05
11:101,3 °C 5,6 °C 6,7 °C 94 % 1021,2 hPa 0,0 mm 0,0 mm 1,4 km/h 4,7 km/h NO 47,0 W/qm 0,0 nein 11:10
11:151,3 °C 5,6 °C 6,7 °C 94 % 1021,2 hPa 0,0 mm - 1,4 km/h 4,7 km/h NO 44,0 W/qm 0,0 nein 11:15
11:201,3 °C 5,6 °C 6,7 °C 94 % 1021,2 hPa 0,0 mm - 1,4 km/h 6,5 km/h NO 42,0 W/qm 0,0 nein 11:20
11:251,3 °C 5,6 °C 6,7 °C 94 % 1021,1 hPa 0,0 mm - 0,0 km/h 6,5 km/h NO 42,0 W/qm 0,0 nein 11:25
11:301,4 °C 5,6 °C 6,7 °C 94 % 1021,0 hPa 0,0 mm - 0,0 km/h 6,5 km/h O 47,0 W/qm 0,0 nein 11:30
11:351,3 °C 5,6 °C 6,7 °C 94 % 1021,0 hPa 0,0 mm - 0,0 km/h 3,2 km/h O 53,0 W/qm 0,0 nein 11:35
11:401,4 °C 5,6 °C 6,7 °C 94 % 1020,9 hPa 0,0 mm - 0,0 km/h 4,7 km/h ONO 54,0 W/qm 0,0 nein 11:40
11:451,4 °C 5,6 °C 6,7 °C 94 % 1020,9 hPa 0,0 mm - 1,4 km/h 4,7 km/h ONO 62,0 W/qm 0,0 nein 11:45
11:501,4 °C 5,6 °C 6,7 °C 94 % 1020,8 hPa 0,0 mm - 3,2 km/h 6,5 km/h NO 54,0 W/qm 0,0 nein 11:50
11:551,4 °C 5,6 °C 6,7 °C 94 % 1020,8 hPa 0,0 mm - 3,2 km/h 7,9 km/h NO 62,0 W/qm 0,0 nein 11:55
UhrzeitTemperaturBoden 10cmBoden 20cmFeuchteLuftdruckNiederschlagEvapotranspirationWindWindböenWindrichtungSolarstrahlungUV-IndexSonne?Uhrzeit
12:001,4 °C 5,6 °C 6,7 °C 94 % 1020,8 hPa 0,0 mm - 1,4 km/h 7,9 km/h N 58,0 W/qm 0,0 nein 12:00
12:051,4 °C 5,6 °C 6,7 °C 94 % 1020,7 hPa 0,0 mm 0,1 mm 1,4 km/h 7,9 km/h NNO 74,0 W/qm 0,0 nein 12:05
12:101,3 °C 5,6 °C 6,7 °C 94 % 1020,7 hPa 0,0 mm 0,1 mm 1,4 km/h 6,5 km/h O 84,0 W/qm 0,0 nein 12:10
12:151,3 °C 5,6 °C 6,7 °C 94 % 1020,7 hPa 0,0 mm - 3,2 km/h 7,9 km/h ONO 84,0 W/qm 0,0 nein 12:15
12:201,4 °C 5,6 °C 6,7 °C 94 % 1020,7 hPa 0,0 mm - 1,4 km/h 7,9 km/h NNO 79,0 W/qm 0,0 nein 12:20
12:251,4 °C 5,6 °C 6,7 °C 94 % 1020,6 hPa 0,0 mm - 0,0 km/h 7,9 km/h WNW 70,0 W/qm 0,0 nein 12:25
12:301,4 °C 5,6 °C 6,7 °C 94 % 1020,6 hPa 0,0 mm - 1,4 km/h 4,7 km/h ONO 62,0 W/qm 0,0 nein 12:30
12:351,3 °C 5,6 °C 6,7 °C 94 % 1020,6 hPa 0,0 mm - 3,2 km/h 4,7 km/h O 58,0 W/qm 0,0 nein 12:35
12:401,3 °C 5,6 °C 6,7 °C 94 % 1020,5 hPa 0,0 mm - 3,2 km/h 9,7 km/h ONO 51,0 W/qm 0,0 nein 12:40
12:451,3 °C 5,6 °C 6,7 °C 94 % 1020,5 hPa 0,0 mm - 3,2 km/h 9,7 km/h ONO 60,0 W/qm 0,0 nein 12:45
12:501,3 °C 5,6 °C 6,7 °C 94 % 1020,5 hPa 0,0 mm - 3,2 km/h 9,7 km/h O 72,0 W/qm 0,0 nein 12:50
12:551,3 °C 5,6 °C 6,7 °C 94 % 1020,5 hPa 0,0 mm - 3,2 km/h 7,9 km/h ONO 62,0 W/qm 0,0 nein 12:55
13:001,3 °C 5,6 °C 6,7 °C 94 % 1020,5 hPa 0,0 mm - 3,2 km/h 7,9 km/h NO 62,0 W/qm 0,0 nein 13:00
13:051,3 °C 5,6 °C 6,7 °C 94 % 1020,5 hPa 0,0 mm 0,1 mm 3,2 km/h 6,5 km/h NO 63,0 W/qm 0,0 nein 13:05
13:101,3 °C 5,6 °C 6,7 °C 94 % 1020,4 hPa 0,0 mm 0,1 mm 3,2 km/h 6,5 km/h NO 62,0 W/qm 0,0 nein 13:10
13:151,3 °C 5,6 °C 6,7 °C 94 % 1020,4 hPa 0,2 mm - 4,7 km/h 7,9 km/h ONO 58,0 W/qm 0,0 nein 13:15
13:201,3 °C 5,6 °C 6,7 °C 94 % 1020,3 hPa 0,0 mm - 4,7 km/h 7,9 km/h NO 56,0 W/qm 0,0 nein 13:20
13:251,2 °C 5,6 °C 6,7 °C 94 % 1020,3 hPa 0,0 mm - 4,7 km/h 7,9 km/h NO 56,0 W/qm 0,0 nein 13:25
13:301,2 °C 5,6 °C 6,7 °C 94 % 1020,2 hPa 0,0 mm - 3,2 km/h 11,2 km/h NO 54,0 W/qm 0,0 nein 13:30
13:351,2 °C 5,6 °C 6,7 °C 94 % 1020,2 hPa 0,0 mm - 3,2 km/h 11,2 km/h NO 54,0 W/qm 0,0 nein 13:35
13:401,2 °C 5,6 °C 6,7 °C 94 % 1020,2 hPa 0,0 mm - 3,2 km/h 11,2 km/h O 65,0 W/qm 0,0 nein 13:40
13:451,2 °C 5,6 °C 6,7 °C 94 % 1020,2 hPa 0,0 mm - 3,2 km/h 7,9 km/h NO 70,0 W/qm 0,0 nein 13:45
13:501,2 °C 5,6 °C 6,7 °C 94 % 1020,1 hPa 0,0 mm - 3,2 km/h 7,9 km/h NO 67,0 W/qm 0,0 nein 13:50
13:551,1 °C 5,6 °C 6,7 °C 94 % 1020,2 hPa 0,0 mm - 3,2 km/h 7,9 km/h O 65,0 W/qm 0,0 nein 13:55
UhrzeitTemperaturBoden 10cmBoden 20cmFeuchteLuftdruckNiederschlagEvapotranspirationWindWindböenWindrichtungSolarstrahlungUV-IndexSonne?Uhrzeit
14:001,1 °C 5,6 °C 6,7 °C 94 % 1020,2 hPa 0,0 mm - 4,7 km/h 7,9 km/h NO 70,0 W/qm 0,0 nein 14:00
14:051,1 °C 5,6 °C 6,7 °C 94 % 1020,2 hPa 0,0 mm 0,1 mm 4,7 km/h 7,9 km/h NO 51,0 W/qm 0,0 nein 14:05
14:101,0 °C 5,6 °C 6,7 °C 94 % 1020,2 hPa 0,2 mm 0,1 mm 4,7 km/h 7,9 km/h NO 54,0 W/qm 0,0 nein 14:10
14:151,0 °C 5,6 °C 6,7 °C 94 % 1020,1 hPa 0,0 mm - 4,7 km/h 7,9 km/h NNO 47,0 W/qm 0,0 nein 14:15
14:201,0 °C 5,6 °C 6,7 °C 94 % 1020,2 hPa 0,0 mm - 4,7 km/h 7,9 km/h NO 42,0 W/qm 0,0 nein 14:20
14:250,9 °C 5,6 °C 6,7 °C 94 % 1020,2 hPa 0,0 mm - 3,2 km/h 7,9 km/h NO 42,0 W/qm 0,0 nein 14:25
14:300,9 °C 5,6 °C 6,7 °C 94 % 1020,2 hPa 0,0 mm - 3,2 km/h 7,9 km/h N 33,0 W/qm 0,0 nein 14:30
14:350,9 °C 5,6 °C 6,7 °C 94 % 1020,2 hPa 0,0 mm - 1,4 km/h 7,9 km/h NNO 26,0 W/qm 0,0 nein 14:35
14:400,9 °C 5,6 °C 6,7 °C 94 % 1020,2 hPa 0,0 mm - 3,2 km/h 6,5 km/h NNO 28,0 W/qm 0,0 nein 14:40
14:450,8 °C 5,6 °C 6,7 °C 94 % 1020,3 hPa 0,0 mm - 3,2 km/h 6,5 km/h NO 28,0 W/qm 0,0 nein 14:45
14:500,8 °C 5,6 °C 6,7 °C 94 % 1020,3 hPa 0,0 mm - 1,4 km/h 6,5 km/h NO 25,0 W/qm 0,0 nein 14:50
14:550,8 °C 5,6 °C 6,7 °C 94 % 1020,3 hPa 0,0 mm - 1,4 km/h 9,7 km/h NO 23,0 W/qm 0,0 nein 14:55
15:000,7 °C 5,6 °C 6,7 °C 94 % 1020,3 hPa 0,2 mm - 1,4 km/h 9,7 km/h NO 19,0 W/qm 0,0 nein 15:00
15:050,7 °C 5,6 °C 6,7 °C 94 % 1020,4 hPa 0,0 mm 0,1 mm 1,4 km/h 6,5 km/h NO 19,0 W/qm 0,0 nein 15:05
15:100,7 °C 5,6 °C 6,7 °C 94 % 1020,4 hPa 0,0 mm 0,1 mm 1,4 km/h 6,5 km/h NO 18,0 W/qm 0,0 nein 15:10
15:150,7 °C 5,6 °C 6,7 °C 94 % 1020,4 hPa 0,0 mm - 1,4 km/h 6,5 km/h NO 19,0 W/qm 0,0 nein 15:15
15:200,6 °C 5,6 °C 6,7 °C 94 % 1020,4 hPa 0,0 mm - 1,4 km/h 6,5 km/h NO 23,0 W/qm 0,0 nein 15:20
15:250,6 °C 5,6 °C 6,7 °C 94 % 1020,5 hPa 0,0 mm - 1,4 km/h 6,5 km/h NO 21,0 W/qm 0,0 nein 15:25
15:300,6 °C 5,6 °C 6,7 °C 94 % 1020,5 hPa 0,2 mm - 1,4 km/h 6,5 km/h ONO 21,0 W/qm 0,0 nein 15:30
15:350,5 °C 5,6 °C 6,7 °C 94 % 1020,6 hPa 0,0 mm - 1,4 km/h 6,5 km/h N 23,0 W/qm 0,0 nein 15:35
15:400,4 °C 5,6 °C 6,7 °C 94 % 1020,6 hPa 0,0 mm - 1,4 km/h 6,5 km/h NO 18,0 W/qm 0,0 nein 15:40
15:450,4 °C 5,6 °C 6,7 °C 94 % 1020,6 hPa 0,0 mm - 1,4 km/h 6,5 km/h NO 12,0 W/qm 0,0 nein 15:45
15:500,4 °C 5,6 °C 6,7 °C 94 % 1020,6 hPa 0,0 mm - 0,0 km/h 6,5 km/h ONO 9,0 W/qm 0,0 nein 15:50
15:550,4 °C 5,6 °C 6,7 °C 94 % 1020,6 hPa 0,0 mm - 0,0 km/h 6,5 km/h SO 9,0 W/qm 0,0 nein 15:55
UhrzeitTemperaturBoden 10cmBoden 20cmFeuchteLuftdruckNiederschlagEvapotranspirationWindWindböenWindrichtungSolarstrahlungUV-IndexSonne?Uhrzeit
16:000,4 °C 5,6 °C 6,7 °C 94 % 1020,6 hPa 0,0 mm - 0,0 km/h 6,5 km/h ONO 7,0 W/qm 0,0 nein 16:00
16:050,4 °C 5,6 °C 6,7 °C 94 % 1020,6 hPa 0,0 mm 0,1 mm 1,4 km/h 6,5 km/h NO 5,0 W/qm 0,0 nein 16:05
16:100,3 °C 5,6 °C 6,7 °C 94 % 1020,6 hPa 0,0 mm 0,1 mm 0,0 km/h 4,7 km/h NO 5,0 W/qm 0,0 nein 16:10
16:150,3 °C 5,6 °C 6,7 °C 94 % 1020,7 hPa 0,0 mm - 0,0 km/h 4,7 km/h NO 0,0 W/qm 0,0 nein 16:15
16:200,3 °C 5,6 °C 6,7 °C 94 % 1020,6 hPa 0,0 mm - 0,0 km/h 4,7 km/h NO 0,0 W/qm 0,0 nein 16:20
16:250,3 °C 5,6 °C 6,7 °C 94 % 1020,7 hPa 0,0 mm - 0,0 km/h 3,2 km/h NO 0,0 W/qm 0,0 nein 16:25
16:300,3 °C 5,6 °C 6,7 °C 94 % 1020,7 hPa 0,2 mm - 1,4 km/h 4,7 km/h NNO 0,0 W/qm 0,0 nein 16:30
16:350,2 °C 5,6 °C 6,7 °C 94 % 1020,7 hPa 0,0 mm - 1,4 km/h 4,7 km/h NO 0,0 W/qm 0,0 nein 16:35
16:400,2 °C 5,6 °C 6,7 °C 94 % 1020,7 hPa 0,0 mm - 0,0 km/h 4,7 km/h NO 0,0 W/qm 0,0 nein 16:40
16:450,2 °C 5,6 °C 6,7 °C 94 % 1020,7 hPa 0,0 mm - 0,0 km/h 4,7 km/h NNO 0,0 W/qm 0,0 nein 16:45
16:500,2 °C 5,6 °C 6,7 °C 94 % 1020,8 hPa 0,0 mm - 0,0 km/h 3,2 km/h NO 0,0 W/qm 0,0 nein 16:50
16:550,1 °C 5,6 °C 6,7 °C 94 % 1020,8 hPa 0,0 mm - 0,0 km/h 3,2 km/h NO 0,0 W/qm 0,0 nein 16:55
17:000,1 °C 5,6 °C 6,7 °C 94 % 1020,8 hPa 0,0 mm - 0,0 km/h 3,2 km/h NO 0,0 W/qm 0,0 nein 17:00
17:050,1 °C 5,6 °C 6,7 °C 94 % 1020,9 hPa 0,0 mm 0,1 mm 0,0 km/h 3,2 km/h NO 0,0 W/qm 0,0 nein 17:05
17:100,1 °C 5,6 °C 6,7 °C 94 % 1020,9 hPa 0,0 mm 0,1 mm 0,0 km/h 0,0 km/h NO 0,0 W/qm 0,0 nein 17:10
17:150,1 °C 5,6 °C 6,7 °C 94 % 1021,0 hPa 0,0 mm - 0,0 km/h 0,0 km/h NO 0,0 W/qm 0,0 nein 17:15
17:200,1 °C 5,6 °C 6,7 °C 94 % 1020,9 hPa 0,0 mm - 0,0 km/h 3,2 km/h NO 0,0 W/qm 0,0 nein 17:20
17:250,1 °C 5,6 °C 6,7 °C 94 % 1020,9 hPa 0,0 mm - 0,0 km/h 3,2 km/h NO 0,0 W/qm 0,0 nein 17:25
17:300,1 °C 5,6 °C 6,7 °C 94 % 1020,9 hPa 0,0 mm - 0,0 km/h 3,2 km/h NO 0,0 W/qm 0,0 nein 17:30
17:350,0 °C 5,6 °C 6,7 °C 94 % 1021,1 hPa 0,0 mm - 0,0 km/h 0,0 km/h NO 0,0 W/qm 0,0 nein 17:35
17:400,0 °C 5,6 °C 6,7 °C 94 % 1021,1 hPa 0,0 mm - 0,0 km/h 3,2 km/h ONO 0,0 W/qm 0,0 nein 17:40
17:45-0,1 °C 5,6 °C 6,7 °C 94 % 1021,1 hPa 0,0 mm - 0,0 km/h 4,7 km/h ONO 0,0 W/qm 0,0 nein 17:45
17:50-0,1 °C 5,6 °C 6,1 °C 94 % 1021,2 hPa 0,0 mm - 0,0 km/h 4,7 km/h NNO 0,0 W/qm 0,0 nein 17:50
17:55-0,1 °C 5,6 °C 6,1 °C 94 % 1021,2 hPa 0,0 mm - 0,0 km/h 4,7 km/h NO 0,0 W/qm 0,0 nein 17:55
UhrzeitTemperaturBoden 10cmBoden 20cmFeuchteLuftdruckNiederschlagEvapotranspirationWindWindböenWindrichtungSolarstrahlungUV-IndexSonne?Uhrzeit
18:00-0,1 °C 5,6 °C 6,1 °C 94 % 1021,3 hPa 0,0 mm - 1,4 km/h 6,5 km/h NO 0,0 W/qm 0,0 nein 18:00
18:05-0,1 °C 5,6 °C 6,1 °C 94 % 1021,3 hPa 0,0 mm 0,1 mm 1,4 km/h 6,5 km/h NNO 0,0 W/qm 0,0 nein 18:05
18:10-0,1 °C 5,6 °C 6,1 °C 95 % 1021,3 hPa 0,0 mm 0,1 mm 0,0 km/h 6,5 km/h NNO 0,0 W/qm 0,0 nein 18:10
18:150,0 °C 5,6 °C 6,1 °C 95 % 1021,3 hPa 0,0 mm - 0,0 km/h 4,7 km/h NNO 0,0 W/qm 0,0 nein 18:15
18:20-0,1 °C 5,6 °C 6,1 °C 95 % 1021,4 hPa 0,0 mm - 1,4 km/h 4,7 km/h NO 0,0 W/qm 0,0 nein 18:20
18:25-0,1 °C 5,6 °C 6,1 °C 95 % 1021,4 hPa 0,0 mm - 1,4 km/h 4,7 km/h NO 0,0 W/qm 0,0 nein 18:25
18:30-0,1 °C 5,6 °C 6,1 °C 95 % 1021,4 hPa 0,0 mm - 0,0 km/h 4,7 km/h NO 0,0 W/qm 0,0 nein 18:30
18:35-0,1 °C 5,6 °C 6,1 °C 95 % 1021,4 hPa 0,0 mm - 0,0 km/h 4,7 km/h NO 0,0 W/qm 0,0 nein 18:35
18:40-0,1 °C 5,6 °C 6,1 °C 95 % 1021,5 hPa 0,0 mm - 0,0 km/h 3,2 km/h NO 0,0 W/qm 0,0 nein 18:40
18:45-0,1 °C 5,6 °C 6,1 °C 95 % 1021,5 hPa 0,0 mm - 0,0 km/h 0,0 km/h NO 0,0 W/qm 0,0 nein 18:45
18:50-0,1 °C 5,6 °C 6,1 °C 95 % 1021,5 hPa 0,0 mm - 0,0 km/h 0,0 km/h NO 0,0 W/qm 0,0 nein 18:50
18:55-0,1 °C 5,6 °C 6,1 °C 94 % 1021,5 hPa 0,0 mm - 0,0 km/h 3,2 km/h NO 0,0 W/qm 0,0 nein 18:55
19:00-0,1 °C 5,6 °C 6,1 °C 94 % 1021,5 hPa 0,0 mm - 0,0 km/h 3,2 km/h NO 0,0 W/qm 0,0 nein 19:00
19:05-0,2 °C 5,6 °C 6,1 °C 94 % 1021,5 hPa 0,0 mm 0,1 mm 1,4 km/h 4,7 km/h N 0,0 W/qm 0,0 nein 19:05
19:10-0,2 °C 5,6 °C 6,1 °C 94 % 1021,5 hPa 0,0 mm 0,1 mm 1,4 km/h 4,7 km/h NNO 0,0 W/qm 0,0 nein 19:10
19:15-0,2 °C 5,6 °C 6,1 °C 94 % 1021,6 hPa 0,0 mm - 1,4 km/h 4,7 km/h NNO 0,0 W/qm 0,0 nein 19:15
19:20-0,2 °C 5,6 °C 6,1 °C 94 % 1021,5 hPa 0,0 mm - 0,0 km/h 4,7 km/h NNO 0,0 W/qm 0,0 nein 19:20
19:25-0,2 °C 5,6 °C 6,1 °C 95 % 1021,5 hPa 0,0 mm - 0,0 km/h 4,7 km/h NO 0,0 W/qm 0,0 nein 19:25
19:30-0,2 °C 5,6 °C 6,1 °C 95 % 1021,5 hPa 0,0 mm - 0,0 km/h 3,2 km/h NO 0,0 W/qm 0,0 nein 19:30
19:35-0,2 °C 5,6 °C 6,1 °C 95 % 1021,5 hPa 0,0 mm - 0,0 km/h 4,7 km/h NO 0,0 W/qm 0,0 nein 19:35
19:40-0,2 °C 5,6 °C 6,1 °C 95 % 1021,4 hPa 0,0 mm - 0,0 km/h 4,7 km/h NNO 0,0 W/qm 0,0 nein 19:40
19:45-0,2 °C 5,6 °C 6,1 °C 95 % 1021,5 hPa 0,0 mm - 1,4 km/h 4,7 km/h ONO 0,0 W/qm 0,0 nein 19:45
19:50-0,2 °C 5,6 °C 6,1 °C 95 % 1021,5 hPa 0,0 mm - 0,0 km/h 4,7 km/h ONO 0,0 W/qm 0,0 nein 19:50
19:55-0,1 °C 5,6 °C 6,1 °C 95 % 1021,4 hPa 0,0 mm - 1,4 km/h 4,7 km/h NO 0,0 W/qm 0,0 nein 19:55
UhrzeitTemperaturBoden 10cmBoden 20cmFeuchteLuftdruckNiederschlagEvapotranspirationWindWindböenWindrichtungSolarstrahlungUV-IndexSonne?Uhrzeit
20:00-0,1 °C 5,6 °C 6,1 °C 95 % 1021,4 hPa 0,0 mm - 1,4 km/h 4,7 km/h NNO 0,0 W/qm 0,0 nein 20:00
20:05-0,2 °C 5,6 °C 6,1 °C 95 % 1021,4 hPa 0,0 mm 0,1 mm 0,0 km/h 4,7 km/h NNO 0,0 W/qm 0,0 nein 20:05
20:10-0,2 °C 5,6 °C 6,1 °C 95 % 1021,4 hPa 0,0 mm 0,1 mm 1,4 km/h 4,7 km/h NNO 0,0 W/qm 0,0 nein 20:10
20:15-0,2 °C 5,6 °C 6,1 °C 95 % 1021,3 hPa 0,0 mm - 1,4 km/h 3,2 km/h ONO 0,0 W/qm 0,0 nein 20:15
20:20-0,2 °C 5,6 °C 6,1 °C 95 % 1021,3 hPa 0,2 mm - 1,4 km/h 4,7 km/h NO 0,0 W/qm 0,0 nein 20:20
20:25-0,2 °C 5,6 °C 6,1 °C 95 % 1021,3 hPa 0,0 mm - 0,0 km/h 4,7 km/h NO 0,0 W/qm 0,0 nein 20:25
20:30-0,2 °C 5,6 °C 6,1 °C 95 % 1021,4 hPa 0,0 mm - 1,4 km/h 4,7 km/h NO 0,0 W/qm 0,0 nein 20:30
20:35-0,2 °C 5,6 °C 6,1 °C 95 % 1021,4 hPa 0,0 mm - 1,4 km/h 4,7 km/h NO 0,0 W/qm 0,0 nein 20:35
20:40-0,2 °C 5,6 °C 6,1 °C 95 % 1021,4 hPa 0,0 mm - 0,0 km/h 4,7 km/h NO 0,0 W/qm 0,0 nein 20:40
20:45-0,2 °C 5,6 °C 6,1 °C 95 % 1021,5 hPa 0,0 mm - 0,0 km/h 4,7 km/h NO 0,0 W/qm 0,0 nein 20:45
20:50-0,2 °C 5,6 °C 6,1 °C 95 % 1021,5 hPa 0,0 mm - 0,0 km/h 4,7 km/h NO 0,0 W/qm 0,0 nein 20:50
20:55-0,1 °C 5,0 °C 6,1 °C 95 % 1021,4 hPa 0,0 mm - 0,0 km/h 4,7 km/h NO 0,0 W/qm 0,0 nein 20:55
21:00-0,1 °C 5,0 °C 6,1 °C 95 % 1021,4 hPa 0,0 mm - 1,4 km/h 4,7 km/h NO 0,0 W/qm 0,0 nein 21:00
21:05-0,1 °C 5,0 °C 6,1 °C 95 % 1021,4 hPa 0,0 mm 0,1 mm 1,4 km/h 4,7 km/h NO 0,0 W/qm 0,0 nein 21:05
21:10-0,1 °C 5,0 °C 6,1 °C 95 % 1021,4 hPa 0,0 mm 0,1 mm 0,0 km/h 4,7 km/h NO 0,0 W/qm 0,0 nein 21:10
21:15-0,2 °C 5,0 °C 6,1 °C 95 % 1021,5 hPa 0,0 mm - 1,4 km/h 4,7 km/h NO 0,0 W/qm 0,0 nein 21:15
21:20-0,2 °C 5,0 °C 6,1 °C 95 % 1021,5 hPa 0,0 mm - 1,4 km/h 7,9 km/h NO 0,0 W/qm 0,0 nein 21:20
21:25-0,2 °C 5,0 °C 6,1 °C 95 % 1021,5 hPa 0,0 mm - 0,0 km/h 7,9 km/h NO 0,0 W/qm 0,0 nein 21:25
21:30-0,2 °C 5,0 °C 6,1 °C 95 % 1021,5 hPa 0,0 mm - 1,4 km/h 4,7 km/h NO 0,0 W/qm 0,0 nein 21:30
21:35-0,2 °C 5,0 °C 6,1 °C 95 % 1021,5 hPa 0,0 mm - 1,4 km/h 4,7 km/h NO 0,0 W/qm 0,0 nein 21:35
21:40-0,2 °C 5,0 °C 6,1 °C 95 % 1021,5 hPa 0,0 mm - 1,4 km/h 4,7 km/h NO 0,0 W/qm 0,0 nein 21:40
21:45-0,2 °C 5,0 °C 6,1 °C 95 % 1021,5 hPa 0,0 mm - 1,4 km/h 4,7 km/h NO 0,0 W/qm 0,0 nein 21:45
21:50-0,2 °C 5,0 °C 6,1 °C 95 % 1021,6 hPa 0,0 mm - 1,4 km/h 4,7 km/h NO 0,0 W/qm 0,0 nein 21:50
21:55-0,2 °C 5,0 °C 6,1 °C 95 % 1021,5 hPa 0,0 mm - 1,4 km/h 6,5 km/h NO 0,0 W/qm 0,0 nein 21:55
UhrzeitTemperaturBoden 10cmBoden 20cmFeuchteLuftdruckNiederschlagEvapotranspirationWindWindböenWindrichtungSolarstrahlungUV-IndexSonne?Uhrzeit
22:00-0,2 °C 5,0 °C 6,1 °C 95 % 1021,5 hPa 0,0 mm - 1,4 km/h 6,5 km/h NO 0,0 W/qm 0,0 nein 22:00
22:05-0,2 °C 5,0 °C 6,1 °C 95 % 1021,6 hPa 0,0 mm 0,1 mm 1,4 km/h 6,5 km/h NO 0,0 W/qm 0,0 nein 22:05
22:10-0,2 °C 5,0 °C 6,1 °C 95 % 1021,5 hPa 0,0 mm 0,1 mm 0,0 km/h 6,5 km/h NO 0,0 W/qm 0,0 nein 22:10
22:15-0,2 °C 5,0 °C 6,1 °C 95 % 1021,6 hPa 0,0 mm - 1,4 km/h 6,5 km/h NO 0,0 W/qm 0,0 nein 22:15
22:20-0,2 °C 5,0 °C 6,1 °C 95 % 1021,6 hPa 0,0 mm - 1,4 km/h 6,5 km/h NO 0,0 W/qm 0,0 nein 22:20
22:25-0,2 °C 5,0 °C 6,1 °C 95 % 1021,6 hPa 0,0 mm - 1,4 km/h 6,5 km/h NO 0,0 W/qm 0,0 nein 22:25
22:30-0,2 °C 5,0 °C 6,1 °C 95 % 1021,6 hPa 0,0 mm - 1,4 km/h 6,5 km/h NO 0,0 W/qm 0,0 nein 22:30
22:35-0,2 °C 5,0 °C 6,1 °C 95 % 1021,7 hPa 0,0 mm - 1,4 km/h 4,7 km/h NO 0,0 W/qm 0,0 nein 22:35
22:40-0,2 °C 5,0 °C 6,1 °C 95 % 1021,6 hPa 0,0 mm - 0,0 km/h 6,5 km/h NO 0,0 W/qm 0,0 nein 22:40
22:45-0,2 °C 5,0 °C 6,1 °C 95 % 1021,6 hPa 0,0 mm - 0,0 km/h 6,5 km/h NO 0,0 W/qm 0,0 nein 22:45
22:50-0,2 °C 5,0 °C 6,1 °C 95 % 1021,7 hPa 0,0 mm - 0,0 km/h 3,2 km/h NO 0,0 W/qm 0,0 nein 22:50
22:55-0,2 °C 5,0 °C 6,1 °C 95 % 1021,8 hPa 0,0 mm - 0,0 km/h 3,2 km/h NO 0,0 W/qm 0,0 nein 22:55
23:00-0,2 °C 5,0 °C 6,1 °C 95 % 1021,8 hPa 0,0 mm - 0,0 km/h 4,7 km/h NO 0,0 W/qm 0,0 nein 23:00
23:05-0,2 °C 5,0 °C 6,1 °C 95 % 1021,8 hPa 0,0 mm 0,1 mm 1,4 km/h 4,7 km/h NO 0,0 W/qm 0,0 nein 23:05
23:10-0,2 °C 5,0 °C 6,1 °C 95 % 1021,8 hPa 0,0 mm 0,1 mm 1,4 km/h 4,7 km/h NO 0,0 W/qm 0,0 nein 23:10
23:15-0,2 °C 5,0 °C 6,1 °C 95 % 1021,9 hPa 0,0 mm - 1,4 km/h 6,5 km/h NO 0,0 W/qm 0,0 nein 23:15
23:20-0,2 °C 5,0 °C 6,1 °C 95 % 1021,8 hPa 0,0 mm - 0,0 km/h 6,5 km/h NO 0,0 W/qm 0,0 nein 23:20
23:25-0,1 °C 5,0 °C 6,1 °C 95 % 1021,8 hPa 0,0 mm - 0,0 km/h 6,5 km/h NO 0,0 W/qm 0,0 nein 23:25
23:30-0,1 °C 5,0 °C 6,1 °C 95 % 1021,8 hPa 0,0 mm - 0,0 km/h 4,7 km/h NO 0,0 W/qm 0,0 nein 23:30
23:35-0,1 °C 5,0 °C 6,1 °C 95 % 1021,8 hPa 0,0 mm - 0,0 km/h 4,7 km/h NO 0,0 W/qm 0,0 nein 23:35
23:40-0,1 °C 5,0 °C 6,1 °C 95 % 1021,8 hPa 0,0 mm - 0,0 km/h 4,7 km/h NO 0,0 W/qm 0,0 nein 23:40
23:45-0,1 °C 5,0 °C 6,1 °C 95 % 1021,8 hPa 0,0 mm - 0,0 km/h 4,7 km/h NO 0,0 W/qm 0,0 nein 23:45
23:50-0,1 °C 5,0 °C 6,1 °C 95 % 1021,8 hPa 0,0 mm - 0,0 km/h 0,0 km/h NO 0,0 W/qm 0,0 nein 23:50
23:55-0,1 °C 5,0 °C 6,1 °C 95 % 1021,7 hPa 0,0 mm - 0,0 km/h 0,0 km/h NO 0,0 W/qm 0,0 nein 23:55
Gesamt: 1,0 °C 5,7 °C 6,5 °C 94 % 1021,5 hPa 1,6 mm 2,9 mm 1,5 km/h 6,0 km/h 0 12,4 W/qm 0,0 nein

Insgesamt 288 Zeilen mal 13 Spalten = 3744 Werte werden angezeigt.

www.wetter-rosstal.de   •   www.wetter-franken.de   •   www.lightningmaps.org   •   Start   •   Kontakt / Datenschutz   •   PC-Kümmerer